COSMOS 1275 DEB, 12704

Orbit data source: Space-Track

COSMOS 1275 DEB, 12704 is space debris in LEO originally from a launch on Thu, 04 Jun 1981 UTC launched from the Plesetsk Missile And Space Complex (PKMTR). Debris objects in space refer to the collection of defunct objects orbiting the Earth. Examples of debris include non-operational satellites, rocket bodies, and fragments generated from explosions, collisions, or faulty payload assembly.

Loading next visibility...
Identifier
12704, 1981-053AY
Orbit
LEO
Country
Flag of CISCIS
Related business
Manufacturer
Unknown
Mission
Spacecraft
Bus & Motor
Unknown
Mass
Unknown
Launch date (UTC)
1981-06-04 (45 years ago)
Launch vehicle
Unknown
Launch site
Plesetsk Missile And Space Complex (PKMTR)
Object type
Payload
Rocket body
Debris
Shape & HBR
Unknown shape, 0.1 m
Radar Cross Section
Medium (>0.1 m² and <1 m²)

Expand to show TLE details & history
Last TLE update: 14 hours ago

TLE from 14 hours ago
0 COSMOS 1275 DEB
1 12704U 81053AY  26174.83355848  .00000426  00000-0  44901-3 0  9998
2 12704  82.9892 124.8997 0083205 326.1156  61.7964 13.71166427238134
Epoch: 2026-06-23T20:00Z
TLE epoch observation values (Epoch: 2026-06-23T20:00:19.452Z)
Latitude
28.56561°
Longitude
-83.36183°
Altitude
970.305 km
Speed
7.383 km/s
True Right ascension
08h 34m 52s
True Declination
28° 25' 32"
Sunlit
Object was in daylight at epoch
Visualization orbit readout
Latitude
Unknown
Longitude
Unknown
Altitude
Unknown
Speed
Unknown
Apparent Right ascension
Unknown
Apparent Declination
Unknown
Sunlit
N/A
Visualization observer readout
Local Sidereal Time
21:05:18
Azimuth
Unknown
Elevation
Unknown
Doppler factor
Unknown
Orbital elements
Apogee altitude
1,053.866 km
Perigee altitude
931.211 km
Semi-major axis
7,370.675 km
Eccentricity
0.00832
Inclination
82.9892°
RAAN
124.8997°
Arg. of periapsis
326.1156°
True anomaly
62.64078°
Mean anomaly
61.7964°
Eccentric anomaly
62.21818°
Mean motion
3.42991 °/min
Orbital period
104.96 mins
BSTAR
0.00044901
Loading maneuver chart data...
Computing Atmospheric mass density...
Loading historical data...
Loading historical data...
Loading historical data...
Loading historical data...
Loading historical data...
Loading historical data...
Loading historical data...

Documentation

Showing up to 5 results
|